This is the latest recevied weather packets stored in our database for station/object WD4ITN. If no packets are shown the sender has not sent any weather packets the latest 10 day(s).
| Time | Temp. | Humidity | Pressure | Rain* | Wind** | Luminosity | Snow |
|---|---|---|---|---|---|---|---|
| 1787919808 | 16.67° C | 99% | 1018.4 hPa | 0.25 mm | - | - | - |
| 1787919505 | 16.67° C | 99% | 1018.3 hPa | 0.25 mm | - | - | - |
| 1787919206 | 16.11° C | 99% | 1018.3 hPa | 0.25 mm | - | - | - |
| 1787918909 | 16.11° C | 99% | 1018.2 hPa | 0.25 mm | - | - | - |
| 1787918599 | 15.56° C | 99% | 1018.1 hPa | 0.25 mm | - | - | - |
| 1787918297 | 15.56° C | 99% | 1018.1 hPa | 0.25 mm | - | - | - |
| 1787917997 | 15° C | 99% | 1018 hPa | 0.25 mm | - | - | - |
| 1787917695 | 15° C | 99% | 1017.8 hPa | 0.25 mm | - | - | - |
| 1787917418 | 15° C | 99% | 1017.8 hPa | 0.25 mm | - | - | - |
| 1787917109 | 14.44° C | 99% | 1017.7 hPa | 0.25 mm | - | - | - |
| 1787916805 | 14.44° C | 98% | 1017.8 hPa | 0 mm | - | - | - |
| 1787916506 | 14.44° C | 98% | 1017.6 hPa | 0 mm | - | - | - |
| 1787916206 | 14.44° C | 98% | 1017.5 hPa | 0 mm | - | - | - |
| 1787915893 | 14.44° C | 98% | 1017.4 hPa | 0 mm | - | - | - |
| 1787915597 | 13.89° C | 98% | 1017.2 hPa | 0 mm | - | - | - |
| 1787915293 | 13.89° C | 98% | 1017.1 hPa | 0 mm | - | - | - |
| 1787915011 | 13.89° C | 98% | 1017 hPa | 0 mm | - | - | - |
| 1787914705 | 13.89° C | 98% | 1017 hPa | 0 mm | - | - | - |
| 1787914546 | 13.89° C | 98% | 1017 hPa | 0 mm | - | - | - |
| 1787876612 | 18.89° C | 96% | 1017 hPa | 0.76 mm | - | - | - |
| 1787876299 | 19.44° C | 96% | 1016.9 hPa | 0.76 mm | - | - | - |
| 1787875997 | 19.44° C | 95% | 1016.8 hPa | 0.76 mm | - | - | - |
| 1787875712 | 19.44° C | 95% | 1016.7 hPa | 0.76 mm | - | - | - |
| 1787875112 | 20° C | 94% | 1016.6 hPa | 0.76 mm | - | - | - |
| 1787874805 | 20° C | 94% | 1016.5 hPa | 0.76 mm | - | - | - |
* Rain since midnight (hover to see other rain measurements)
** Current wind speed in m/s (hover to see current wind gust speed)